This demonstration page uses our WeatherBlox Daily Observations layout. Learn more.

Left ArrowRight Arrow

38.83388, -104.82136

Hourly Observations for April 12, 2017

Temp ( °F °C ) Dew Point ( °F °C ) Humidity (%) Winds ( mph kmh ) Pressure ( in mb ) Visibility ( mi km ) Precip ( " mm )
12:58 am 00:58 Partly Cloudy 51 10.4 15 -9.3 24 24 W 5 7 29.61 1003 10 16 0.00 0.00
1:58 am 01:58 Mostly Clear 54 12.2 17 -8.4 23 23 W 8 13 29.77 1008 10 16 0.00 0.00
2:58 am 02:58 Clear 55 12.7 10 -12 17 17 W 9 15 29.56 1001 10 16 0.00 0.00
3:58 am 03:58 Clear 56 13.1 10 -12.2 16 16 W 6 9 29.56 1001 10 16 0.00 0.00
4:58 am 04:58 Clear 52 11 15 -9.7 23 23 Calm 29.57 1001 10 16 0.00 0.00
5:58 am 05:58 Clear 50 10 16 -8.7 26 26 W 7 11 29.61 1003 10 16 0.00 0.00
6:58 am 06:58 Sunny 50 9.9 17 -8.1 28 28 Calm 29.63 1003 10 16 0.00 0.00
7:58 am 07:58 Sunny 55 13 15 -9.5 20 20 Calm 29.64 1004 10 16 0.00 0.00
8:58 am 08:58 Mostly Sunny 58 14.5 18 -7.9 21 21 ENE 7 11 29.64 1004 10 16 0.00 0.00
9:58 am 09:58 Mostly Cloudy 59 14.8 16 -8.9 19 19 SE 7 11 29.66 1005 10 16 0.00 0.00
10:58 am 10:58 Mostly Cloudy 62 16.7 13 -10.4 15 15 Calm 29.67 1005 10 16 0.00 0.00
11:58 am 11:58 Sunny 64 17.7 19 -7.1 18 18 E 6 9 29.66 1004 10 16 0.00 0.00
12:58 pm 12:58 Sunny 65 18.5 17 -8.6 15 15 SE 7 11 29.63 1004 10 16 0.00 0.00
1:58 pm 13:58 Mostly Sunny 67 19.5 16 -8.7 14 14 E 13 20 29.62 1003 10 16 0.00 0.00
2:58 pm 14:58 Partly Cloudy 67 19.2 16 -8.8 14 14 S 6 9 29.61 1003 10 16 0.00 0.00
3:51 pm 15:51 Mostly Sunny 66 19 16 -9 14 14 S 15 24 29.65 1004 10 16 0.00 0.00
3:58 pm 15:58 Mostly Sunny 66 18.9 16 -8.9 14 14 SSE 15 24 29.60 1002 10 16 0.00 0.00
4:58 pm 16:58 Sunny 64 18 16 -8.8 15 15 SE 12 19 29.64 1004 10 16 0.00 0.00
5:58 pm 17:58 Sunny 63 17.2 16 -8.9 16 16 SE 12 19 29.64 1004 10 16 0.00 0.00
6:58 pm 18:58 Sunny 62 16.8 16 -8.9 16 16 S 9 15 29.66 1005 10 16 0.00 0.00
7:58 pm 19:58 Clear 60 15.4 19 -7.4 20 20 SSW 12 19 29.68 1005 10 16 0.00 0.00
8:58 pm 20:58 Clear 57 13.8 21 -6.2 25 25 SSE 12 19 29.73 1007 10 16 0.00 0.00
9:58 pm 21:58 Clear 55 12.6 22 -5.3 29 29 WSW 6 9 29.75 1008 10 16 0.00 0.00
10:58 pm 22:58 Clear 52 11.2 23 -5.2 32 32 SW 6 9 29.76 1008 10 16 0.00 0.00
11:58 pm 23:58 Mostly Clear 51 10.8 26 -3.5 37 37 WNW 6 9 29.74 1007 10 16 0.00 0.00

Powered by AerisWeather